Hourly Data Report for April 28, 2017

All times are specified in Local Standard Time (LST). Add 1 hour to adjust for Daylight Saving Time where and when it is observed.

TORONTO CITY
ONTARIO

43°40'00.000" N
79°24'00.000" W
112.50 m
6158355
71508
XTO

Download Data

Hourly Data (April 2017)
Hourly Data Report for April 28, 2017
TIME Temp Definition
°C
Dew Point Definition
°C
Rel Hum Definition
%
Wind Dir Definition
10's deg

Wind Spd Definition
km/h
Visibility Definition
km
Stn Press Definition
kPa
Hmdx Definition


Wind Chill Definition


Weather Definition


00:00 13.7 9.0 73 LegendMM LegendMM   99.45     LegendNANA
01:00 12.6 7.8 73 LegendMM LegendMM   99.55     LegendNANA
02:00 12.2 6.9 70 LegendMM LegendMM   99.62     LegendNANA
03:00 11.8 6.2 68 LegendMM LegendMM   99.75     LegendNANA
04:00 11.3 5.1 65 LegendMM LegendMM   99.85     LegendNANA
05:00 10.6 4.0 64 LegendMM LegendMM   99.91     LegendNANA
06:00 10.7 4.3 64 LegendMM LegendMM   100.00     LegendNANA
07:00 11.2 4.8 65 LegendMM LegendMM   100.13     LegendNANA
08:00 11.6 5.1 65 LegendMM LegendMM   100.17     LegendNANA
09:00 11.8 5.4 65 LegendMM LegendMM   100.21     LegendNANA
10:00 13.1 4.3 55 LegendMM LegendMM   100.21     LegendNANA
11:00 14.4 6.4 59 LegendMM LegendMM   100.19     LegendNANA
12:00 15.1 6.7 57 LegendMM LegendMM   100.23     LegendNANA
13:00 14.8 6.6 58 LegendMM LegendMM   100.22     LegendNANA
14:00 15.6 5.7 52 LegendMM LegendMM   100.16     LegendNANA
15:00 16.4 6.2 51 LegendMM LegendMM   100.14     LegendNANA
16:00 17.1 4.4 43 LegendMM LegendMM   100.17     LegendNANA
17:00 16.9 2.8 39 LegendMM LegendMM   100.21     LegendNANA
18:00 17.7 2.1 35 LegendMM LegendMM   100.14     LegendNANA
19:00 16.6 4.7 45 LegendMM LegendMM   100.07     LegendNANA
20:00 16.0 5.7 50 LegendMM LegendMM   100.13     LegendNANA
21:00 13.2 6.6 64 LegendMM LegendMM   100.08     LegendNANA
22:00 12.3 6.7 68 LegendMM LegendMM   100.06     LegendNANA
23:00 12.1 6.4 68 LegendMM LegendMM   100.12     LegendNANA

Notes on Data Quality.

Legend

  • E = Estimated
  • M = Missing
  • NA = Not Available
Date modified: